Time,TemperatureF,DewpointF,PressureIn,WindDirection,WindDirectionDegrees,WindSpeedMPH,WindSpeedGustMPH,Humidity,HourlyPrecipIn,Conditions,Clouds,dailyrainin,SoftwareType,DateUTC
2013-04-17 00:01:00,30.4,25.6,30.31,NNW,338,0.0,0.0,82,0.00,OVC,,0.00,WeatherDisplay:10.37,2013-04-17 05:01:00,
2013-04-17 00:06:00,29.8,25.3,30.31,NNW,338,0.0,0.0,83,0.00,OVC,,0.00,WeatherDisplay:10.37,2013-04-17 05:06:00,
2013-04-17 00:11:00,29.8,25.3,30.31,NNW,338,0.0,0.0,83,0.00,OVC,,0.00,WeatherDisplay:10.37,2013-04-17 05:11:00,
2013-04-17 00:16:00,29.5,25.0,30.31,NNW,338,0.0,0.0,83,0.00,OVC,,0.00,WeatherDisplay:10.37,2013-04-17 05:16:00,
2013-04-17 00:22:00,29.7,25.2,30.31,NNW,338,0.0,0.0,83,0.00,OVC,,0.00,WeatherDisplay:10.37,2013-04-17 05:22:00,
2013-04-17 00:27:00,29.3,24.8,30.31,NNW,338,0.0,0.0,83,0.00,OVC,,0.00,WeatherDisplay:10.37,2013-04-17 05:27:00,
2013-04-17 00:32:00,29.1,24.9,30.31,NNW,338,0.0,0.0,84,0.00,OVC,,0.00,WeatherDisplay:10.37,2013-04-17 05:32:00,
2013-04-17 00:37:00,28.8,24.6,30.31,NNW,338,0.0,0.0,84,0.00,OVC,,0.00,WeatherDisplay:10.37,2013-04-17 05:37:00,
2013-04-17 00:42:00,28.8,25.1,30.31,NNW,338,0.0,0.0,86,0.00,OVC,,0.00,WeatherDisplay:10.37,2013-04-17 05:42:00,
2013-04-17 00:47:00,28.8,25.1,30.31,NNW,338,0.0,0.0,86,0.00,OVC,,0.00,WeatherDisplay:10.37,2013-04-17 05:47:00,
2013-04-17 00:52:00,28.8,25.1,30.31,NNW,338,0.0,0.0,86,0.00,OVC,,0.00,WeatherDisplay:10.37,2013-04-17 05:52:00,
2013-04-17 00:57:00,28.8,25.1,30.31,NNW,338,0.0,0.0,86,0.00,OVC,,0.00,WeatherDisplay:10.37,2013-04-17 05:57:00,
2013-04-17 01:02:00,28.6,24.9,30.31,NNW,338,0.0,0.0,86,0.00,OVC,,0.00,WeatherDisplay:10.37,2013-04-17 06:02:00,
2013-04-17 01:07:00,28.4,24.5,30.31,NNW,338,0.0,0.0,85,0.00,OVC,,0.00,WeatherDisplay:10.37,2013-04-17 06:07:00,
2013-04-17 01:13:00,28.4,24.5,30.31,NNW,338,0.0,0.0,85,0.00,OVC,,0.00,WeatherDisplay:10.37,2013-04-17 06:13:00,
2013-04-17 01:18:00,28.2,24.6,30.31,NNW,338,0.0,0.0,86,0.00,OVC,,0.00,WeatherDisplay:10.37,2013-04-17 06:18:00,
2013-04-17 01:23:00,28.0,24.4,30.31,NNW,338,0.0,0.0,86,0.00,OVC,,0.00,WeatherDisplay:10.37,2013-04-17 06:23:00,
2013-04-17 01:28:00,27.9,24.5,30.31,NNW,338,0.0,0.0,87,0.00,OVC,,0.00,WeatherDisplay:10.37,2013-04-17 06:28:00,
2013-04-17 01:33:00,27.7,24.3,30.31,NNW,338,0.0,0.0,87,0.00,OVC,,0.00,WeatherDisplay:10.37,2013-04-17 06:33:00,
2013-04-17 01:38:00,27.5,24.7,30.31,NNW,338,0.0,0.0,89,0.00,OVC,,0.00,WeatherDisplay:10.37,2013-04-17 06:38:00,
2013-04-17 01:43:00,27.7,24.9,30.31,NNW,338,0.0,0.0,89,0.00,OVC,,0.00,WeatherDisplay:10.37,2013-04-17 06:43:00,
2013-04-17 01:48:00,27.7,24.9,30.31,NNW,338,0.0,0.0,89,0.00,OVC,,0.00,WeatherDisplay:10.37,2013-04-17 06:48:00,
2013-04-17 01:53:00,27.5,24.7,30.31,NNW,338,0.0,0.0,89,0.00,OVC,,0.00,WeatherDisplay:10.37,2013-04-17 06:53:00,
2013-04-17 01:58:00,27.5,24.7,30.31,NNW,338,0.0,0.0,89,0.00,OVC,,0.00,WeatherDisplay:10.37,2013-04-17 06:58:00,
2013-04-17 02:04:00,27.7,25.2,30.31,NNW,338,0.0,0.0,90,0.00,OVC,,0.00,WeatherDisplay:10.37,2013-04-17 07:04:00,
2013-04-17 02:09:00,27.3,24.5,30.31,NNW,338,0.0,0.0,89,0.00,OVC,,0.00,WeatherDisplay:10.37,2013-04-17 07:09:00,
2013-04-17 02:14:00,27.3,24.8,30.31,NNW,338,0.0,0.0,90,0.00,OVC,,0.00,WeatherDisplay:10.37,2013-04-17 07:14:00,
2013-04-17 02:19:00,27.5,25.2,30.31,NNW,338,0.0,0.0,91,0.00,OVC,,0.00,WeatherDisplay:10.37,2013-04-17 07:19:00,
2013-04-17 02:24:00,27.5,25.2,30.30,NNW,338,0.0,0.0,91,0.00,OVC,,0.00,WeatherDisplay:10.37,2013-04-17 07:24:00,
2013-04-17 02:29:00,27.5,25.2,30.30,NNW,338,0.0,0.0,91,0.00,OVC,,0.00,WeatherDisplay:10.37,2013-04-17 07:29:00,
2013-04-17 02:34:00,27.5,25.2,30.31,NNW,338,0.0,0.0,91,0.00,OVC,,0.00,WeatherDisplay:10.37,2013-04-17 07:34:00,
2013-04-17 02:39:00,27.5,25.2,30.31,NNW,338,0.0,0.0,91,0.00,OVC,,0.00,WeatherDisplay:10.37,2013-04-17 07:39:00,
2013-04-17 02:44:00,27.5,25.2,30.31,NNW,338,0.0,0.0,91,0.00,OVC,,0.00,WeatherDisplay:10.37,2013-04-17 07:44:00,
2013-04-17 02:50:00,27.5,25.0,30.30,NNW,338,0.0,0.0,90,0.00,OVC,,0.00,WeatherDisplay:10.37,2013-04-17 07:50:00,
2013-04-17 02:55:00,27.5,25.0,30.30,NNW,338,0.0,0.0,90,0.00,OVC,,0.00,WeatherDisplay:10.37,2013-04-17 07:55:00,
2013-04-17 03:00:00,27.5,25.0,30.31,NNW,338,0.0,0.0,90,0.00,OVC,,0.00,WeatherDisplay:10.37,2013-04-17 08:00:00,
2013-04-17 03:05:00,27.7,25.2,30.31,NNW,338,0.0,0.0,90,0.00,OVC,,0.00,WeatherDisplay:10.37,2013-04-17 08:05:00,
2013-04-17 03:10:00,27.9,25.3,30.31,NNW,338,0.0,0.0,90,0.00,OVC,,0.00,WeatherDisplay:10.37,2013-04-17 08:10:00,
2013-04-17 03:15:00,28.2,25.6,30.31,NNW,338,0.0,0.0,90,0.00,OVC,,0.00,WeatherDisplay:10.37,2013-04-17 08:15:00,
2013-04-17 03:20:00,28.4,25.8,30.31,NNW,338,0.0,0.0,90,0.00,OVC,,0.00,WeatherDisplay:10.37,2013-04-17 08:20:00,
2013-04-17 03:25:00,28.6,25.8,30.32,NNW,338,0.0,0.0,89,0.00,OVC,,0.00,WeatherDisplay:10.37,2013-04-17 08:25:00,
2013-04-17 03:30:00,28.9,26.1,30.32,NNW,338,0.0,0.0,89,0.00,OVC,,0.00,WeatherDisplay:10.37,2013-04-17 08:30:00,
2013-04-17 03:35:00,29.1,26.3,30.32,NNW,338,0.0,0.0,89,0.00,OVC,,0.00,WeatherDisplay:10.37,2013-04-17 08:35:00,
2013-04-17 03:41:00,30.0,25.8,30.32,NNW,338,0.0,0.0,84,0.00,OVC,,0.00,WeatherDisplay:10.37,2013-04-17 08:41:00,
2013-04-17 03:46:00,30.2,25.7,30.32,NNW,338,0.0,0.0,83,0.00,OVC,,0.00,WeatherDisplay:10.37,2013-04-17 08:46:00,
2013-04-17 03:51:00,30.7,25.6,30.32,NNW,338,0.0,0.0,81,0.00,OVC,,0.00,WeatherDisplay:10.37,2013-04-17 08:51:00,
2013-04-17 03:56:00,31.3,25.5,30.32,NNW,338,0.0,1.1,79,0.00,OVC,,0.00,WeatherDisplay:10.37,2013-04-17 08:56:00,
2013-04-17 04:01:00,31.3,25.5,30.32,NNW,338,0.0,0.0,79,0.00,OVC,,0.00,WeatherDisplay:10.37,2013-04-17 09:01:00,
2013-04-17 04:06:00,31.5,25.7,30.32,NNW,338,0.0,0.0,79,0.00,OVC,,0.00,WeatherDisplay:10.37,2013-04-17 09:06:00,
2013-04-17 04:12:00,31.6,25.5,30.31,NNW,338,0.0,0.0,78,0.00,OVC,,0.00,WeatherDisplay:10.37,2013-04-17 09:12:00,
2013-04-17 04:17:00,31.8,25.7,30.31,NNW,338,0.0,0.0,78,0.00,OVC,,0.00,WeatherDisplay:10.37,2013-04-17 09:17:00,
2013-04-17 05:51:00,32.5,25.5,30.25,East,90,0.0,6.3,75,0.00,OVC,,0.00,WeatherDisplay:10.37,2013-04-17 10:51:00,
2013-04-17 05:56:00,32.2,25.2,30.25,East,90,0.2,1.1,75,0.00,OVC,,0.00,WeatherDisplay:10.37,2013-04-17 10:56:00,
2013-04-17 06:02:00,32.2,25.5,30.24,ENE,68,0.9,3.2,76,0.00,OVC,,0.00,WeatherDisplay:10.37,2013-04-17 11:02:00,
2013-04-17 06:07:00,32.2,25.5,30.24,ESE,112,2.5,2.7,76,0.00,OVC,,0.00,WeatherDisplay:10.37,2013-04-17 11:07:00,
2013-04-17 06:12:00,32.2,25.5,30.24,ESE,112,0.0,0.0,76,0.00,OVC,,0.00,WeatherDisplay:10.37,2013-04-17 11:12:00,
2013-04-17 06:17:00,32.2,25.5,30.24,East,90,0.0,0.0,76,0.00,OVC,,0.00,WeatherDisplay:10.37,2013-04-17 11:17:00,
2013-04-17 06:22:00,32.2,25.5,30.25,ESE,112,0.0,0.0,76,0.00,OVC,,0.00,WeatherDisplay:10.37,2013-04-17 11:22:00,
2013-04-17 06:27:00,32.2,25.5,30.25,ESE,112,0.0,0.0,76,0.00,OVC,,0.00,WeatherDisplay:10.37,2013-04-17 11:27:00,
2013-04-17 06:32:00,32.4,25.7,30.25,ENE,68,2.5,3.5,76,0.00,OVC,,0.00,WeatherDisplay:10.37,2013-04-17 11:32:00,
2013-04-17 06:37:00,32.9,25.5,30.24,East,90,2.5,3.5,74,0.00,OVC,,0.00,WeatherDisplay:10.37,2013-04-17 11:37:00,
2013-04-17 06:42:00,32.9,25.5,30.24,ENE,68,2.3,3.2,74,0.00,OVC,,0.00,WeatherDisplay:10.37,2013-04-17 11:42:00,
2013-04-17 06:47:00,33.1,25.7,30.25,ENE,68,2.6,3.5,74,0.00,OVC,,0.00,WeatherDisplay:10.37,2013-04-17 11:47:00,
2013-04-17 06:53:00,33.1,25.7,30.25,NNE,22,0.9,2.3,74,0.00,OVC,,0.00,WeatherDisplay:10.37,2013-04-17 11:53:00,
2013-04-17 06:58:00,33.1,25.7,30.26,East,90,2.9,4.6,74,0.00,OVC,,0.00,WeatherDisplay:10.37,2013-04-17 11:58:00,
2013-04-17 07:03:00,33.1,25.7,30.26,East,90,0.0,3.5,74,0.00,OVC,,0.00,WeatherDisplay:10.37,2013-04-17 12:03:00,
2013-04-17 07:08:00,33.3,25.9,30.26,East,90,3.2,5.8,74,0.00,OVC,,0.00,WeatherDisplay:10.37,2013-04-17 12:08:00,
2013-04-17 07:13:00,33.3,25.9,30.27,East,90,2.1,3.7,74,0.00,OVC,,0.00,WeatherDisplay:10.37,2013-04-17 12:13:00,
2013-04-17 07:18:00,33.3,25.9,30.27,SE,135,0.0,0.0,74,0.00,OVC,,0.00,WeatherDisplay:10.37,2013-04-17 12:18:00,
2013-04-17 07:23:00,33.3,25.9,30.30,NE,45,0.0,0.0,74,0.00,OVC,,0.00,WeatherDisplay:10.37,2013-04-17 12:23:00,
2013-04-17 07:28:00,33.4,26.0,30.30,SE,135,0.0,0.0,74,0.00,OVC,,0.00,WeatherDisplay:10.37,2013-04-17 12:28:00,
2013-04-17 07:33:00,33.4,26.0,30.30,ESE,112,1.2,3.7,74,0.00,OVC,,0.00,WeatherDisplay:10.37,2013-04-17 12:33:00,
2013-04-17 07:38:00,33.6,25.9,30.31,East,90,0.4,3.5,73,0.00,OVC,,0.00,WeatherDisplay:10.37,2013-04-17 12:38:00,
2013-04-17 07:44:00,34.0,26.3,30.31,ENE,68,1.1,3.2,73,0.00,OVC,,0.00,WeatherDisplay:10.37,2013-04-17 12:44:00,
2013-04-17 07:49:00,34.7,26.6,30.27,East,90,3.4,4.6,72,0.00,OVC,,0.00,WeatherDisplay:10.37,2013-04-17 12:49:00,
2013-04-17 07:54:00,35.2,26.7,30.27,East,90,2.6,4.2,71,0.00,OVC,,0.00,WeatherDisplay:10.37,2013-04-17 12:54:00,
2013-04-17 07:59:00,35.4,26.9,30.27,ENE,68,3.9,4.6,71,0.00,OVC,,0.00,WeatherDisplay:10.37,2013-04-17 12:59:00,
2013-04-17 08:04:00,35.4,26.9,30.27,East,90,2.1,3.5,71,0.00,OVC,,0.00,WeatherDisplay:10.37,2013-04-17 13:04:00,
2013-04-17 08:09:00,35.2,26.7,30.27,NE,45,3.7,5.8,71,0.00,OVC,,0.00,WeatherDisplay:10.37,2013-04-17 13:09:00,
2013-04-17 08:14:00,35.2,26.7,30.26,ESE,112,3.2,4.6,71,0.00,OVC,,0.00,WeatherDisplay:10.37,2013-04-17 13:14:00,
2013-04-17 08:19:00,35.2,26.7,30.26,SSE,158,3.3,4.6,71,0.00,OVC,,0.00,WeatherDisplay:10.37,2013-04-17 13:19:00,
2013-04-17 08:24:00,35.2,26.7,30.26,East,90,2.7,5.8,71,0.00,OVC,,0.00,WeatherDisplay:10.37,2013-04-17 13:24:00,
2013-04-17 08:29:00,35.6,26.8,30.26,East,90,3.0,5.8,70,0.00,OVC,,0.00,WeatherDisplay:10.37,2013-04-17 13:29:00,
2013-04-17 08:35:00,35.6,26.8,30.27,ESE,112,6.8,7.8,70,0.00,OVC,,0.00,WeatherDisplay:10.37,2013-04-17 13:35:00,
2013-04-17 08:40:00,35.6,26.8,30.27,ENE,68,4.9,6.9,70,0.00,OVC,,0.00,WeatherDisplay:10.37,2013-04-17 13:40:00,
2013-04-17 08:45:00,35.6,26.8,30.27,ENE,68,3.9,4.6,70,0.00,OVC,,0.00,WeatherDisplay:10.37,2013-04-17 13:45:00,
2013-04-17 08:50:00,35.8,27.0,30.29,East,90,3.5,4.7,70,0.00,OVC,,0.00,WeatherDisplay:10.37,2013-04-17 13:50:00,
2013-04-17 08:55:00,35.8,27.0,30.29,East,90,4.1,4.7,70,0.00,OVC,,0.00,WeatherDisplay:10.37,2013-04-17 13:55:00,
2013-04-17 09:00:00,35.8,27.3,30.28,ESE,112,2.8,4.2,71,0.00,OVC,,0.00,WeatherDisplay:10.37,2013-04-17 14:00:00,
2013-04-17 09:05:00,36.0,27.5,30.28,East,90,1.9,5.8,71,0.00,OVC,,0.00,WeatherDisplay:10.37,2013-04-17 14:05:00,
2013-04-17 09:10:00,36.3,27.8,30.28,ENE,68,4.4,7.3,71,0.00,OVC,,0.00,WeatherDisplay:10.37,2013-04-17 14:10:00,
2013-04-17 09:15:00,36.5,28.0,30.28,ENE,68,3.5,6.8,71,0.00,OVC,,0.00,WeatherDisplay:10.37,2013-04-17 14:15:00,
2013-04-17 09:20:00,36.9,28.0,30.28,East,90,2.9,5.8,70,0.00,OVC,,0.00,WeatherDisplay:10.37,2013-04-17 14:20:00,
2013-04-17 09:26:00,36.9,28.0,30.28,ESE,112,2.5,3.7,70,0.00,OVC,,0.00,WeatherDisplay:10.37,2013-04-17 14:26:00,
2013-04-17 09:31:00,36.9,28.0,30.28,ENE,68,2.2,2.3,70,0.00,OVC,,0.00,WeatherDisplay:10.37,2013-04-17 14:31:00,
2013-04-17 09:36:00,36.9,28.0,30.28,ENE,68,2.2,2.3,70,0.00,OVC,,0.00,WeatherDisplay:10.37,2013-04-17 14:36:00,
2013-04-17 09:41:00,36.9,28.0,30.28,ENE,68,2.2,2.3,70,0.00,OVC,,0.00,WeatherDisplay:10.37,2013-04-17 14:41:00,
2013-04-17 09:46:00,36.9,28.0,30.28,ENE,68,2.2,2.3,70,0.00,OVC,,0.00,WeatherDisplay:10.37,2013-04-17 14:46:00,
2013-04-17 09:51:00,36.9,28.0,30.28,ENE,68,2.2,2.3,70,0.00,OVC,,0.00,WeatherDisplay:10.37,2013-04-17 14:51:00,
2013-04-17 09:56:00,36.9,28.0,30.28,ENE,68,2.2,2.3,70,0.00,OVC,,0.00,WeatherDisplay:10.37,2013-04-17 14:56:00,
2013-04-17 10:02:00,36.9,28.0,30.28,ENE,68,2.2,2.3,70,0.00,OVC,,0.00,WeatherDisplay:10.37,2013-04-17 15:02:00,
2013-04-17 10:07:00,36.9,28.0,30.28,ENE,68,2.2,2.3,70,0.00,OVC,,0.00,WeatherDisplay:10.37,2013-04-17 15:07:00,
2013-04-17 10:12:00,36.9,28.0,30.28,ENE,68,2.2,2.3,70,0.00,OVC,,0.00,WeatherDisplay:10.37,2013-04-17 15:12:00,
2013-04-17 10:17:00,36.9,28.0,30.28,ENE,68,2.2,2.3,70,0.00,OVC,,0.00,WeatherDisplay:10.37,2013-04-17 15:17:00,
2013-04-17 10:22:00,36.9,28.0,30.28,ENE,68,2.2,2.3,70,0.00,OVC,,0.00,WeatherDisplay:10.37,2013-04-17 15:22:00,
2013-04-17 10:27:00,36.9,28.0,30.28,ENE,68,2.2,2.3,70,0.00,OVC,,0.00,WeatherDisplay:10.37,2013-04-17 15:27:00,
2013-04-17 10:32:00,36.9,28.0,30.28,ENE,68,2.2,2.3,70,0.00,OVC,,0.00,WeatherDisplay:10.37,2013-04-17 15:32:00,
2013-04-17 10:37:00,36.9,28.0,30.28,ENE,68,2.2,2.3,70,0.00,OVC,,0.00,WeatherDisplay:10.37,2013-04-17 15:37:00,
2013-04-17 10:42:00,36.9,28.0,30.28,ENE,68,2.2,2.3,70,0.00,OVC,,0.00,WeatherDisplay:10.37,2013-04-17 15:42:00,
2013-04-17 10:47:00,36.9,28.0,30.28,ENE,68,2.2,2.3,70,0.00,OVC,,0.00,WeatherDisplay:10.37,2013-04-17 15:47:00,
2013-04-17 10:53:00,36.9,28.0,30.28,ENE,68,2.2,2.3,70,0.00,OVC,,0.00,WeatherDisplay:10.37,2013-04-17 15:53:00,
2013-04-17 10:58:00,36.9,28.0,30.28,ENE,68,2.2,2.3,70,0.00,OVC,,0.00,WeatherDisplay:10.37,2013-04-17 15:58:00,
2013-04-17 11:03:00,36.9,28.0,30.28,ENE,68,2.2,2.3,70,0.00,OVC,,0.00,WeatherDisplay:10.37,2013-04-17 16:03:00,
2013-04-17 11:08:00,36.9,28.0,30.28,ENE,68,2.2,2.3,70,0.00,OVC,,0.00,WeatherDisplay:10.37,2013-04-17 16:08:00,
2013-04-17 11:13:00,36.9,28.0,30.28,ENE,68,2.2,2.3,70,0.00,OVC,,0.00,WeatherDisplay:10.37,2013-04-17 16:13:00,
2013-04-17 11:18:00,36.9,28.0,30.28,ENE,68,2.2,2.3,70,0.00,OVC,,0.00,WeatherDisplay:10.37,2013-04-17 16:18:00,
2013-04-17 11:23:00,36.9,28.0,30.28,ENE,68,2.2,2.3,70,0.00,OVC,,0.00,WeatherDisplay:10.37,2013-04-17 16:23:00,
2013-04-17 11:28:00,36.9,28.0,30.28,ENE,68,2.2,2.3,70,0.00,OVC,,0.00,WeatherDisplay:10.37,2013-04-17 16:28:00,
2013-04-17 11:33:00,36.9,28.0,30.28,ENE,68,2.2,2.3,70,0.00,OVC,,0.00,WeatherDisplay:10.37,2013-04-17 16:33:00,
2013-04-17 11:38:00,36.9,28.0,30.28,ENE,68,2.2,2.3,70,0.00,OVC,,0.00,WeatherDisplay:10.37,2013-04-17 16:38:00,
2013-04-17 11:44:00,38.5,29.9,30.25,NE,45,4.1,5.8,71,0.00,OVC,,0.00,WeatherDisplay:10.37,2013-04-17 16:44:00,
2013-04-17 11:49:00,38.7,29.8,30.24,ESE,112,3.9,5.8,70,0.00,OVC,,0.00,WeatherDisplay:10.37,2013-04-17 16:49:00,
2013-04-17 11:54:00,38.8,29.8,30.24,ENE,68,3.8,5.8,70,0.00,OVC,,0.00,WeatherDisplay:10.37,2013-04-17 16:54:00,
2013-04-17 11:59:00,38.8,29.8,30.23,ESE,112,4.4,7.3,70,0.00,OVC,,0.00,WeatherDisplay:10.37,2013-04-17 16:59:00,
2013-04-17 12:04:00,38.5,29.6,30.23,ESE,112,8.1,9.2,70,0.00,OVC,,0.00,WeatherDisplay:10.37,2013-04-17 17:04:00,
2013-04-17 12:09:00,38.3,29.4,30.23,SE,135,5.0,5.8,70,0.00,OVC,,0.00,WeatherDisplay:10.37,2013-04-17 17:09:00,
2013-04-17 12:14:00,38.1,29.5,30.23,East,90,7.7,8.1,71,0.00,OVC,,0.00,WeatherDisplay:10.37,2013-04-17 17:14:00,
2013-04-17 12:19:00,37.9,29.3,30.23,NE,45,4.7,5.8,71,0.00,OVC,,0.00,WeatherDisplay:10.37,2013-04-17 17:19:00,
2013-04-17 12:24:00,37.9,29.3,30.21,ENE,68,6.4,8.1,71,0.00,OVC,,0.00,WeatherDisplay:10.37,2013-04-17 17:24:00,
2013-04-17 12:29:00,37.9,29.3,30.21,ESE,112,5.9,8.1,71,0.00,OVC,,0.00,WeatherDisplay:10.37,2013-04-17 17:29:00,
2013-04-17 12:35:00,37.9,29.7,30.19,ENE,68,5.4,9.2,72,0.00,OVC,,0.00,WeatherDisplay:10.37,2013-04-17 17:35:00,
2013-04-17 12:40:00,38.1,29.9,30.19,ESE,112,5.5,6.9,72,0.00,OVC,,0.00,WeatherDisplay:10.37,2013-04-17 17:40:00,
2013-04-17 12:45:00,37.9,29.7,30.19,ENE,68,6.0,8.1,72,0.00,OVC,,0.00,WeatherDisplay:10.37,2013-04-17 17:45:00,
2013-04-17 12:50:00,37.9,29.7,30.19,East,90,5.3,6.9,72,0.00,OVC,,0.00,WeatherDisplay:10.37,2013-04-17 17:50:00,
2013-04-17 12:55:00,38.1,29.9,30.19,ENE,68,5.1,5.8,72,0.00,OVC,,0.00,WeatherDisplay:10.37,2013-04-17 17:55:00,
2013-04-17 13:00:00,38.1,29.9,30.18,SE,135,4.8,6.3,72,0.00,OVC,,0.00,WeatherDisplay:10.37,2013-04-17 18:00:00,
2013-04-17 13:05:00,38.1,29.9,30.18,NNE,22,5.6,6.9,72,0.00,OVC,,0.00,WeatherDisplay:10.37,2013-04-17 18:05:00,
2013-04-17 13:10:00,38.1,29.9,30.16,ENE,68,5.4,6.9,72,0.00,OVC,,0.00,WeatherDisplay:10.37,2013-04-17 18:10:00,
2013-04-17 13:15:00,38.1,29.9,30.16,East,90,6.2,6.9,72,0.00,OVC,,0.00,WeatherDisplay:10.37,2013-04-17 18:15:00,
2013-04-17 13:20:00,38.3,30.1,30.16,SE,135,6.7,8.3,72,0.00,OVC,,0.00,WeatherDisplay:10.37,2013-04-17 18:20:00,
2013-04-17 13:26:00,38.5,30.3,30.15,NE,45,6.0,6.9,72,0.00,OVC,,0.00,WeatherDisplay:10.37,2013-04-17 18:26:00,
2013-04-17 13:31:00,38.7,30.4,30.15,NNE,22,3.9,5.8,72,0.00,OVC,,0.00,WeatherDisplay:10.37,2013-04-17 18:31:00,
2013-04-17 13:36:00,38.7,30.4,30.14,ENE,68,6.8,8.1,72,0.00,OVC,,0.00,WeatherDisplay:10.37,2013-04-17 18:36:00,
2013-04-17 13:41:00,38.7,30.4,30.14,NE,45,4.8,5.8,72,0.00,OVC,,0.00,WeatherDisplay:10.37,2013-04-17 18:41:00,
2013-04-17 13:46:00,38.7,30.4,30.14,NE,45,4.3,5.8,72,0.00,OVC,,0.00,WeatherDisplay:10.37,2013-04-17 18:46:00,
2013-04-17 13:51:00,38.7,30.1,30.14,NE,45,4.2,8.1,71,0.00,OVC,,0.00,WeatherDisplay:10.37,2013-04-17 18:51:00,
2013-04-17 13:56:00,38.8,30.2,30.14,East,90,3.9,6.9,71,0.00,OVC,,0.00,WeatherDisplay:10.37,2013-04-17 18:56:00,
2013-04-17 14:02:00,39.2,30.6,30.13,East,90,3.0,4.7,71,0.00,OVC,,0.00,WeatherDisplay:10.37,2013-04-17 19:02:00,
2013-04-17 14:07:00,39.4,30.4,30.13,SSE,158,4.3,5.8,70,0.00,OVC,,0.00,WeatherDisplay:10.37,2013-04-17 19:07:00,
2013-04-17 14:12:00,39.7,30.7,30.13,East,90,1.9,2.3,70,0.00,OVC,,0.00,WeatherDisplay:10.37,2013-04-17 19:12:00,
2013-04-17 14:17:00,39.7,30.7,30.13,ENE,68,4.2,5.8,70,0.00,OVC,,0.00,WeatherDisplay:10.37,2013-04-17 19:17:00,
2013-04-17 14:22:00,39.7,30.7,30.13,ENE,68,2.0,4.2,70,0.00,OVC,,0.00,WeatherDisplay:10.37,2013-04-17 19:22:00,
2013-04-17 14:27:00,39.7,30.7,30.13,ESE,112,4.6,6.9,70,0.00,OVC,,0.00,WeatherDisplay:10.37,2013-04-17 19:27:00,
2013-04-17 14:32:00,40.1,31.1,30.13,ENE,68,4.0,5.8,70,0.00,OVC,,0.00,WeatherDisplay:10.37,2013-04-17 19:32:00,
2013-04-17 14:37:00,40.5,31.1,30.13,ESE,112,5.1,8.3,69,0.00,OVC,,0.00,WeatherDisplay:10.37,2013-04-17 19:37:00,
2013-04-17 14:42:00,40.1,30.7,30.13,NNE,22,3.9,5.8,69,0.00,OVC,,0.00,WeatherDisplay:10.37,2013-04-17 19:42:00,
2013-04-17 14:47:00,40.1,30.7,30.13,East,90,2.6,4.6,69,0.00,OVC,,0.00,WeatherDisplay:10.37,2013-04-17 19:47:00,
2013-04-17 14:53:00,40.3,30.9,30.13,SE,135,6.2,10.4,69,0.00,OVC,,0.00,WeatherDisplay:10.37,2013-04-17 19:53:00,
2013-04-17 14:58:00,40.3,30.9,30.11,East,90,3.5,6.9,69,0.00,OVC,,0.00,WeatherDisplay:10.37,2013-04-17 19:58:00,
2013-04-17 15:03:00,39.9,30.5,30.11,NNE,22,3.7,5.8,69,0.00,OVC,,0.00,WeatherDisplay:10.37,2013-04-17 20:03:00,
2013-04-17 15:08:00,40.1,31.1,30.11,NNE,22,3.8,5.8,70,0.00,OVC,,0.00,WeatherDisplay:10.37,2013-04-17 20:08:00,
2013-04-17 15:13:00,40.3,30.9,30.10,East,90,4.0,5.8,69,0.00,OVC,,0.00,WeatherDisplay:10.37,2013-04-17 20:13:00,
2013-04-17 15:18:00,40.1,30.7,30.10,East,90,4.9,5.8,69,0.00,OVC,,0.00,WeatherDisplay:10.37,2013-04-17 20:18:00,
2013-04-17 15:23:00,40.3,30.9,30.11,NE,45,3.0,3.7,69,0.00,OVC,,0.00,WeatherDisplay:10.37,2013-04-17 20:23:00,
2013-04-17 15:28:00,40.5,31.1,30.11,East,90,4.8,6.8,69,0.00,OVC,,0.00,WeatherDisplay:10.37,2013-04-17 20:28:00,
2013-04-17 15:33:00,40.5,30.8,30.11,NE,45,4.7,6.8,68,0.00,OVC,,0.00,WeatherDisplay:10.37,2013-04-17 20:33:00,
2013-04-17 15:39:00,40.6,30.9,30.11,NNE,22,2.9,4.6,68,0.00,OVC,,0.00,WeatherDisplay:10.37,2013-04-17 20:39:00,
2013-04-17 15:44:00,41.0,31.2,30.11,NNE,22,3.1,4.6,68,0.00,OVC,,0.00,WeatherDisplay:10.37,2013-04-17 20:44:00,
2013-04-17 15:49:00,41.0,30.9,30.10,NNE,22,3.8,5.8,67,0.00,OVC,,0.00,WeatherDisplay:10.37,2013-04-17 20:49:00,
2013-04-17 15:54:00,41.2,31.1,30.10,ENE,68,4.9,6.9,67,0.00,OVC,,0.00,WeatherDisplay:10.37,2013-04-17 20:54:00,
2013-04-17 15:59:00,41.2,31.1,30.09,NE,45,5.9,8.1,67,0.00,OVC,,0.00,WeatherDisplay:10.37,2013-04-17 20:59:00,
2013-04-17 16:04:00,41.2,31.1,30.09,East,90,4.0,4.6,67,0.00,OVC,,0.00,WeatherDisplay:10.37,2013-04-17 21:04:00,
2013-04-17 16:09:00,41.5,31.4,30.08,SE,135,3.4,5.3,67,0.00,OVC,,0.00,WeatherDisplay:10.37,2013-04-17 21:09:00,
2013-04-17 16:14:00,41.7,31.5,30.08,North,360,2.8,3.7,67,0.00,OVC,,0.00,WeatherDisplay:10.37,2013-04-17 21:14:00,
2013-04-17 16:19:00,41.4,31.6,30.08,NNE,22,4.6,5.8,68,0.00,OVC,,0.00,WeatherDisplay:10.37,2013-04-17 21:19:00,
2013-04-17 16:24:00,41.0,31.2,30.08,NE,45,4.6,5.8,68,0.00,OVC,,0.00,WeatherDisplay:10.37,2013-04-17 21:24:00,
2013-04-17 16:30:00,40.5,31.1,30.08,North,360,4.6,5.8,69,0.00,OVC,,0.00,WeatherDisplay:10.37,2013-04-17 21:30:00,
2013-04-17 16:35:00,40.3,30.9,30.08,East,90,5.0,6.9,69,0.00,OVC,,0.00,WeatherDisplay:10.37,2013-04-17 21:35:00,
2013-04-17 16:40:00,40.3,31.3,30.08,ENE,68,4.5,5.8,70,0.00,OVC,,0.00,WeatherDisplay:10.37,2013-04-17 21:40:00,
2013-04-17 16:45:00,40.3,31.6,30.08,East,90,4.5,5.8,71,0.00,OVC,,0.00,WeatherDisplay:10.37,2013-04-17 21:45:00,
2013-04-17 16:50:00,40.3,31.6,30.08,NNE,22,1.8,3.2,71,0.00,OVC,,0.00,WeatherDisplay:10.37,2013-04-17 21:50:00,
2013-04-17 16:55:00,40.1,31.4,30.08,NNE,22,5.7,8.1,71,0.00,OVC,,0.00,WeatherDisplay:10.37,2013-04-17 21:55:00,
2013-04-17 17:00:00,39.9,31.6,30.08,NE,45,3.7,4.6,72,0.00,OVC,,0.00,WeatherDisplay:10.37,2013-04-17 22:00:00,
2013-04-17 17:05:00,39.9,31.9,30.08,East,90,3.2,4.6,73,0.00,OVC,,0.00,WeatherDisplay:10.37,2013-04-17 22:05:00,
2013-04-17 17:10:00,39.6,31.7,30.07,ESE,112,6.7,8.1,73,0.00,OVC,,0.00,WeatherDisplay:10.37,2013-04-17 22:10:00,
2013-04-17 17:15:00,39.6,32.0,30.07,NE,45,2.0,4.6,74,0.00,OVC,,0.00,WeatherDisplay:10.37,2013-04-17 22:15:00,
2013-04-17 17:21:00,39.6,32.0,30.07,East,90,2.2,4.7,74,0.00,OVC,,0.00,WeatherDisplay:10.37,2013-04-17 22:21:00,
2013-04-17 17:26:00,39.4,31.8,30.06,ENE,68,2.7,9.2,74,0.00,OVC,,0.00,WeatherDisplay:10.37,2013-04-17 22:26:00,
2013-04-17 17:31:00,39.0,31.4,30.06,North,360,3.3,5.8,74,0.00,OVC,,0.00,WeatherDisplay:10.37,2013-04-17 22:31:00,
2013-04-17 17:36:00,39.0,31.7,30.06,ENE,68,4.4,5.8,75,0.00,OVC,,0.00,WeatherDisplay:10.37,2013-04-17 22:36:00,
2013-04-17 17:41:00,38.8,31.9,30.06,East,90,3.0,5.8,76,0.00,OVC,,0.00,WeatherDisplay:10.37,2013-04-17 22:41:00,
2013-04-17 17:46:00,38.8,32.2,30.06,ENE,68,3.5,5.8,77,0.00,OVC,,0.00,WeatherDisplay:10.37,2013-04-17 22:46:00,
2013-04-17 17:51:00,38.8,32.2,30.06,ESE,112,4.1,4.6,77,0.00,OVC,,0.00,WeatherDisplay:10.37,2013-04-17 22:51:00,
2013-04-17 17:57:00,38.7,32.1,30.06,NNE,22,5.1,8.1,77,0.00,OVC,,0.00,WeatherDisplay:10.37,2013-04-17 22:57:00,
2013-04-17 18:02:00,38.7,32.1,30.03,NNE,22,5.7,8.1,77,0.00,OVC,,0.00,WeatherDisplay:10.37,2013-04-17 23:02:00,
2013-04-17 18:07:00,38.7,32.1,30.03,East,90,4.0,6.3,77,0.00,OVC,,0.00,WeatherDisplay:10.37,2013-04-17 23:07:00,
2013-04-17 18:12:00,38.7,32.1,30.03,NE,45,3.2,4.6,77,0.00,OVC,,0.00,WeatherDisplay:10.37,2013-04-17 23:12:00,
2013-04-17 18:17:00,38.7,32.1,30.03,ENE,68,7.9,11.5,77,0.00,OVC,,0.00,WeatherDisplay:10.37,2013-04-17 23:17:00,
2013-04-17 18:22:00,38.7,32.1,30.04,NNE,22,6.9,7.8,77,0.00,OVC,,0.00,WeatherDisplay:10.37,2013-04-17 23:22:00,
2013-04-17 18:27:00,38.5,31.9,30.04,East,90,7.2,9.4,77,0.00,OVC,,0.00,WeatherDisplay:10.37,2013-04-17 23:27:00,
2013-04-17 18:33:00,38.5,31.9,30.04,NE,45,5.0,5.3,77,0.00,OVC,,0.00,WeatherDisplay:10.37,2013-04-17 23:33:00,
2013-04-17 18:38:00,38.3,31.7,30.04,ENE,68,4.7,8.1,77,0.00,OVC,,0.00,WeatherDisplay:10.37,2013-04-17 23:38:00,
2013-04-17 18:43:00,38.1,31.8,30.04,East,90,2.1,3.5,78,0.00,OVC,,0.00,WeatherDisplay:10.37,2013-04-17 23:43:00,
2013-04-17 18:48:00,37.9,32.0,30.04,ESE,112,3.1,4.6,79,0.00,OVC,,0.00,WeatherDisplay:10.37,2013-04-17 23:48:00,
2013-04-17 18:53:00,37.4,31.5,30.04,NNE,22,3.4,5.8,79,0.00,OVC,,0.00,WeatherDisplay:10.37,2013-04-17 23:53:00,
2013-04-17 18:58:00,37.0,31.7,30.03,North,360,4.1,6.3,81,0.00,OVC,,0.00,WeatherDisplay:10.37,2013-04-17 23:58:00,
2013-04-17 19:03:00,36.9,32.2,30.03,East,90,4.3,5.8,83,0.00,OVC,,0.00,WeatherDisplay:10.37,2013-04-18 00:03:00,
2013-04-17 19:08:00,36.5,32.1,30.03,NNE,22,3.9,5.8,84,0.00,OVC,,0.00,WeatherDisplay:10.37,2013-04-18 00:08:00,
2013-04-17 19:13:00,36.3,31.9,30.02,ESE,112,3.9,4.6,84,0.00,OVC,,0.00,WeatherDisplay:10.37,2013-04-18 00:13:00,
2013-04-17 19:18:00,36.3,31.9,30.02,NNE,22,3.6,4.6,84,0.00,OVC,,0.00,WeatherDisplay:10.37,2013-04-18 00:18:00,
2013-04-17 19:24:00,36.3,31.9,30.02,NNE,22,3.9,4.6,84,0.00,OVC,,0.00,WeatherDisplay:10.37,2013-04-18 00:24:00,
2013-04-17 19:29:00,36.3,32.2,30.02,East,90,3.3,3.7,85,0.00,OVC,,0.00,WeatherDisplay:10.37,2013-04-18 00:29:00,
2013-04-17 19:34:00,36.1,32.0,30.00,ENE,68,5.0,6.9,85,0.00,OVC,,0.00,WeatherDisplay:10.37,2013-04-18 00:34:00,
2013-04-17 19:39:00,36.0,31.9,30.00,NE,45,3.6,4.6,85,0.00,OVC,,0.00,WeatherDisplay:10.37,2013-04-18 00:39:00,
2013-04-17 19:44:00,36.0,32.2,30.00,North,360,4.6,5.8,86,0.00,OVC,,0.00,WeatherDisplay:10.37,2013-04-18 00:44:00,
2013-04-17 19:49:00,36.0,32.2,30.00,ESE,112,2.7,4.7,86,0.00,OVC,,0.00,WeatherDisplay:10.37,2013-04-18 00:49:00,
2013-04-17 19:54:00,35.8,32.0,30.00,East,90,3.6,4.6,86,0.00,OVC,,0.00,WeatherDisplay:10.37,2013-04-18 00:54:00,
2013-04-17 19:59:00,35.8,32.0,30.01,East,90,2.8,6.3,86,0.00,OVC,,0.00,WeatherDisplay:10.37,2013-04-18 00:59:00,
2013-04-17 20:04:00,35.8,31.7,30.01,NE,45,5.6,6.9,85,0.00,OVC,,0.00,WeatherDisplay:10.37,2013-04-18 01:04:00,
2013-04-17 20:09:00,35.8,31.7,30.01,ENE,68,3.5,4.6,85,0.00,OVC,,0.00,WeatherDisplay:10.37,2013-04-18 01:09:00,
2013-04-17 20:15:00,35.8,31.7,30.00,NE,45,6.3,6.8,85,0.00,OVC,,0.00,WeatherDisplay:10.37,2013-04-18 01:15:00,
2013-04-17 20:20:00,35.8,31.7,30.00,NNE,22,1.7,2.2,85,0.00,OVC,,0.00,WeatherDisplay:10.37,2013-04-18 01:20:00,
2013-04-17 20:25:00,35.6,31.5,30.01,NE,45,2.8,4.6,85,0.00,OVC,,0.00,WeatherDisplay:10.37,2013-04-18 01:25:00,
2013-04-17 20:30:00,35.6,31.5,30.01,NE,45,4.3,5.8,85,0.00,OVC,,0.00,WeatherDisplay:10.37,2013-04-18 01:30:00,
2013-04-17 20:35:00,35.4,31.3,30.01,ESE,112,2.7,4.6,85,0.00,OVC,,0.00,WeatherDisplay:10.37,2013-04-18 01:35:00,
2013-04-17 20:40:00,35.4,31.3,30.01,NNE,22,2.3,3.5,85,0.00,OVC,,0.00,WeatherDisplay:10.37,2013-04-18 01:40:00,
2013-04-17 20:45:00,35.4,31.3,30.03,NE,45,3.0,3.5,85,0.00,OVC,,0.00,WeatherDisplay:10.37,2013-04-18 01:45:00,
2013-04-17 20:50:00,35.2,31.1,30.03,East,90,3.5,5.8,85,0.00,OVC,,0.00,WeatherDisplay:10.37,2013-04-18 01:50:00,
2013-04-17 20:55:00,35.1,31.6,30.03,ENE,68,2.0,4.2,87,0.00,OVC,,0.00,WeatherDisplay:10.37,2013-04-18 01:55:00,
2013-04-17 21:00:00,34.9,32.0,30.03,ESE,112,3.1,4.2,89,0.00,OVC,,0.00,WeatherDisplay:10.37,2013-04-18 02:00:00,
2013-04-17 21:06:00,34.5,31.9,30.03,NNW,338,2.0,3.5,90,0.00,OVC,,0.00,WeatherDisplay:10.37,2013-04-18 02:06:00,
2013-04-17 21:11:00,34.0,31.6,30.03,NE,45,3.3,4.6,91,0.00,OVC,,0.00,WeatherDisplay:10.37,2013-04-18 02:11:00,
2013-04-17 21:16:00,33.8,31.7,30.03,East,90,3.8,5.8,92,0.00,OVC,,0.00,WeatherDisplay:10.37,2013-04-18 02:16:00,
2013-04-17 21:21:00,33.8,32.0,30.03,ENE,68,2.5,4.6,93,0.00,OVC,,0.00,WeatherDisplay:10.37,2013-04-18 02:21:00,
2013-04-17 21:26:00,33.8,32.0,30.03,ENE,68,3.0,3.7,93,0.00,OVC,,0.00,WeatherDisplay:10.37,2013-04-18 02:26:00,
2013-04-17 21:31:00,33.6,32.1,30.03,NNE,22,2.4,4.6,94,0.00,OVC,,0.00,WeatherDisplay:10.37,2013-04-18 02:31:00,
2013-04-17 21:36:00,33.6,32.1,30.05,East,90,5.2,5.8,94,0.00,OVC,,0.00,WeatherDisplay:10.37,2013-04-18 02:36:00,
2013-04-17 21:42:00,33.4,31.9,30.05,ENE,68,3.4,5.3,94,0.00,OVC,,0.00,WeatherDisplay:10.37,2013-04-18 02:42:00,
2013-04-17 21:47:00,33.4,31.9,30.04,ENE,68,3.7,4.6,94,0.00,OVC,,0.00,WeatherDisplay:10.37,2013-04-18 02:47:00,
2013-04-17 21:52:00,33.1,31.6,30.04,NE,45,2.8,3.5,94,0.00,OVC,,0.00,WeatherDisplay:10.37,2013-04-18 02:52:00,
2013-04-17 21:57:00,32.9,31.6,30.01,NE,45,2.7,3.5,95,0.00,OVC,,0.00,WeatherDisplay:10.37,2013-04-18 02:57:00,
2013-04-17 22:02:00,32.7,31.4,30.01,ENE,68,0.2,1.1,95,0.00,OVC,,0.00,WeatherDisplay:10.37,2013-04-18 03:02:00,
2013-04-17 22:07:00,32.7,31.4,30.01,ENE,68,3.7,4.6,95,0.00,OVC,,0.00,WeatherDisplay:10.37,2013-04-18 03:07:00,
2013-04-17 22:12:00,32.5,31.5,29.99,ENE,68,3.8,4.6,96,0.00,OVC,,0.00,WeatherDisplay:10.37,2013-04-18 03:12:00,
2013-04-17 22:17:00,32.5,31.5,29.99,NNE,22,4.8,4.8,96,0.00,OVC,,0.00,WeatherDisplay:10.37,2013-04-18 03:17:00,
2013-04-17 22:22:00,32.5,31.5,29.95,East,90,5.3,5.8,96,0.00,OVC,,0.00,WeatherDisplay:10.37,2013-04-18 03:22:00,
2013-04-17 22:27:00,32.5,31.5,29.95,North,360,3.8,4.2,96,0.00,OVC,,0.00,WeatherDisplay:10.37,2013-04-18 03:27:00,
2013-04-17 22:33:00,32.5,31.5,29.95,ENE,68,3.8,6.9,96,0.00,OVC,,0.00,WeatherDisplay:10.37,2013-04-18 03:33:00,
2013-04-17 22:38:00,32.5,31.5,29.97,NNE,22,4.4,5.8,96,0.00,OVC,,0.00,WeatherDisplay:10.37,2013-04-18 03:38:00,
2013-04-17 22:43:00,32.5,31.5,29.97,NNE,22,3.5,5.8,96,0.00,OVC,,0.00,WeatherDisplay:10.37,2013-04-18 03:43:00,
2013-04-17 22:48:00,32.5,31.5,29.98,NE,45,4.4,6.9,96,0.00,OVC,,0.00,WeatherDisplay:10.37,2013-04-18 03:48:00,
2013-04-17 22:53:00,32.5,31.7,29.98,North,360,2.5,3.5,97,0.00,OVC,,0.00,WeatherDisplay:10.37,2013-04-18 03:53:00,
2013-04-17 22:58:00,32.5,31.7,29.98,NNE,22,3.3,4.6,97,0.00,OVC,,0.00,WeatherDisplay:10.37,2013-04-18 03:58:00,
2013-04-17 23:01:00,32.5,31.7,29.98,ENE,68,3.9,4.6,97,0.00,OVC,,0.00,WeatherDisplay:10.37,2013-04-18 04:01:00,
2013-04-17 23:02:00,32.5,31.7,29.98,East,90,4.2,4.6,97,0.00,OVC,,0.00,WeatherDisplay:10.37,2013-04-18 04:02:00,
2013-04-17 23:07:00,32.5,31.7,29.98,North,360,3.8,4.6,97,0.00,OVC,,0.00,WeatherDisplay:10.37,2013-04-18 04:07:00,
2013-04-17 23:12:00,32.5,31.7,29.95,East,90,6.0,10.9,97,0.00,OVC,,0.00,WeatherDisplay:10.37,2013-04-18 04:12:00,
2013-04-17 23:17:00,32.5,31.7,29.95,North,360,3.7,5.8,97,0.00,OVC,,0.00,WeatherDisplay:10.37,2013-04-18 04:17:00,
2013-04-17 23:22:00,32.5,31.7,29.95,North,360,4.8,4.8,97,0.00,OVC,,0.00,WeatherDisplay:10.37,2013-04-18 04:22:00,
2013-04-17 23:27:00,32.5,31.7,29.95,NE,45,3.3,4.6,97,0.00,OVC,,0.00,WeatherDisplay:10.37,2013-04-18 04:27:00,
2013-04-17 23:33:00,32.5,31.7,29.95,North,360,4.3,5.8,97,0.00,OVC,,0.00,WeatherDisplay:10.37,2013-04-18 04:33:00,
2013-04-17 23:38:00,32.5,31.7,29.95,North,360,3.8,5.8,97,0.00,OVC,,0.00,WeatherDisplay:10.37,2013-04-18 04:38:00,
2013-04-17 23:43:00,32.5,31.7,29.95,NNE,22,2.9,4.6,97,0.00,OVC,,0.00,WeatherDisplay:10.37,2013-04-18 04:43:00,
2013-04-17 23:48:00,32.5,31.7,29.97,NNE,22,2.0,3.7,97,0.00,OVC,,0.00,WeatherDisplay:10.37,2013-04-18 04:48:00,
2013-04-17 23:53:00,32.5,31.7,29.97,North,360,2.7,3.5,97,0.00,OVC,,0.00,WeatherDisplay:10.37,2013-04-18 04:53:00,
2013-04-17 23:58:00,32.5,31.7,29.96,North,360,2.8,4.6,97,0.00,OVC,,0.00,WeatherDisplay:10.37,2013-04-18 04:58:00,